Location: Thompson
(55.7500°N, 97.8670°W)
Time: 12:21:21
(UTC-06:00)

Daily predictions for brighter satellites

Satellite Brightness Start Highest point End
(mag) Time Altitude Azimuth Time Altitude Azimuth Time Altitude Azimuth
Nadezhda 1 Rocket 4.1 16:38:30 10° SSE 16:44:24 55° E 16:50:25 10° NNE
Cosmos 2341 Rocket 4.1 16:41:14 10° N 16:47:23 57° ENE 16:53:29 10° SSE
GEOS 3 Rocket 3.7 16:43:05 10° ESE 16:48:04 54° NNE 16:53:05 10° NW
Cosmos 2074 Rocket 4.4 16:43:04 10° NNW 16:49:17 70° W 16:55:27 10° S
Cosmos 1844 Rocket 4.3 16:47:22 10° SE 16:50:45 17° E 16:54:09 10° ENE
Cosmos 2150 Rocket 4.2 16:45:58 10° SSW 16:51:25 89° ESE 16:56:56 10° NNE
PAYLOAD A 4.1 16:48:45 10° SE 16:53:29 54° ENE 16:58:25 10° N
Meteor 1-10 Rocket 4.4 16:47:44 10° S 16:53:39 73° E 16:59:35 10° NNE
Cosmos 1242 Rocket 4.0 16:50:39 10° SW 16:54:05 37° WNW 16:57:35 10° N
UNK 4.5 16:51:28 10° N 16:55:59 54° WNW 17:00:27 10° SW
Cosmos 1818 3.7 16:53:00 10° SW 16:58:29 87° NW 17:04:01 10° NE
SPOT 3 Rocket 3.8 16:55:28 10° SE 17:00:27 48° ENE 17:05:26 10° N
MSX 4.3 16:55:30 10° SE 17:00:45 38° ENE 17:06:01 10° N
COSMOS 2487 4.0 16:59:17 10° N 17:01:52 18° NE 17:04:27 10° E
Cosmos 2298 Rocket 4.3 16:57:47 10° SW 17:03:07 72° WNW 17:08:29 10° NNE
Meteor 1-27 Rocket 3.9 16:58:13 10° S 17:03:52 56° E 17:09:27 10° NNE
Cosmos 1674 Rocket 3.6 17:00:19 10° S 17:04:45 70° E 17:09:12 10° NNE
SL-16 R/B 3.0 16:59:35 10° NNE 17:05:40 62° WNW 17:11:45 10° SW
CZ-4 R/B 1.6 17:02:13 10° SE 17:06:16 52° ENE 17:10:18 10° N
USA 234 4.3 17:01:23 10° ENE 17:07:07 31° SE 17:12:47 10° SSW
SJ-12 4.2 17:03:44 10° SE 17:07:40 46° ENE 17:11:38 10° N
CORIOLIS 4.3 17:04:02 10° SE 17:09:14 50° ENE 17:14:26 10° N
Cosmos 1975 4.0 17:06:07 10° N 17:09:20 22° ENE 17:12:31 10° ESE
NOSS 3-4 (A) 4.0 17:03:06 10° WNW 17:09:35 49° NNE 17:16:27 10° E
NOSS 3-4 (C) 4.0 17:03:12 10° WNW 17:09:41 49° NNE 17:16:33 10° E
Okean 1 Rocket 3.2 17:05:53 10° NNW 17:10:16 79° W 17:14:36 10° S
Okean 3 3.9 17:09:34 10° SSE 17:13:37 43° E 17:17:40 10° NNE
Cosmos 1544 Rocket 4.0 17:11:23 10° N 17:15:38 41° ENE 17:19:52 10° SE
COSMO-SKYMED 1 4.4 17:15:50 12° ENE 17:16:15 12° E 17:17:59 10° ESE
COSMOS 2406 3.7 17:12:15 10° NW 17:17:56 68° WSW 17:23:37 10° SSE
MTI 3.8 17:14:50 10° NNE 17:18:10 74° ESE 17:21:29 10° S
IDEFIX/ARIANE 42P 2.6 17:13:43 10° SE 17:18:49 60° ENE 17:23:56 10° N
Cosmos 2154 Rocket 4.2 17:12:37 10° NNW 17:18:52 79° W 17:25:06 10° S
Ariane Rocket 4.0 17:14:24 10° S 17:19:22 52° W 17:24:21 10° NNW
Cosmos 1782 3.4 17:16:09 10° SSW 17:20:07 58° WNW 17:24:09 10° N
Cosmos 2278 Rocket 3.8 17:18:48 10° SE 17:21:32 14° E 17:23:00 13° E
Cosmos 494 Rocket 4.0 17:16:56 10° NNW 17:22:08 60° ENE 17:27:20 10° SE
Cosmos 1898 Rocket 4.1 17:17:44 10° SW 17:22:48 54° NW 17:27:56 10° NNE
MOS 1 4.2 17:17:35 10° SSE 17:23:13 73° ENE 17:28:53 10° NNW
ASTEX 1 3.6 17:19:31 10° N 17:24:33 78° W 17:29:33 10° SSW
ATLAS 2AS CENTAUR R/B 3.3 17:17:05 10° NW 17:25:17 79° SW 17:33:06 10° SE
Cosmos 1975 Rocket 3.4 17:22:52 10° SSE 17:26:56 42° E 17:31:02 10° NNE
Cosmos 1937 Rocket 3.9 17:22:52 10° SW 17:28:06 63° WNW 17:33:19 10° NNE
Meteor 1-5 Rocket 4.1 17:23:00 10° NNW 17:28:24 82° ENE 17:33:54 10° SSE
USA 161 4.1 17:26:37 10° NNW 17:28:24 17° WNW 17:30:14 10° WSW
Cosmos 1125 Rocket 3.7 17:24:53 10° S 17:30:04 56° ESE 17:35:06 11° NE
Thor Agena Rocket 4.1 17:25:21 10° NNE 17:30:09 37° E 17:34:59 10° SSE
ISS -0.7 17:30:07 10° SSE 17:30:33 10° SE 17:30:59 10° SE
Genesis I 3.2 17:28:15 10° NW 17:32:13 64° NE 17:36:08 10° ESE
ERBS 2.3 17:29:58 10° W 17:33:25 81° NNW 17:35:37 21° ENE
Cosmos 2082 Rocket 2.5 17:32:47 10° NNW 17:38:13 44° NE 17:43:38 10° ESE
Cosmos 2297 Rocket 3.9 17:34:57 10° WNW 17:39:23 23° NNW 17:43:49 10° NNE
Cosmos 1743 4.2 17:37:13 10° NNE 17:39:17 18° NE 17:39:17 18° NE
Cosmos 1833 Rocket 3.1 17:36:37 10° NNW 17:42:01 42° NE 17:47:22 10° ESE
Cosmos 1484 Rocket 3.1 17:38:41 10° SE 17:42:10 38° ENE 17:45:39 10° N
CZ-2C R/B 3.6 17:37:43 10° NNE 17:42:12 84° ESE 17:46:40 10° SSW
Cosmos 2251 Rocket 3.5 17:36:54 10° NNW 17:42:20 88° ENE 17:47:42 10° SSE
Cosmos 2227 Rocket 4.0 17:39:33 10° WNW 17:43:41 20° NNW 17:47:45 10° NNE
EO 1 Del DPAF 4.0 17:43:28 10° N 17:47:16 53° WNW 17:51:04 10° SW
SL-27 R/B 3.1 17:46:43 10° NNW 17:50:23 62° WSW 17:54:01 10° SSE
YAOGAN 1 2.6 17:47:02 10° SSE 17:51:22 85° WSW 17:55:45 10° NNW
AQUARIUS 4.3 17:46:54 10° SSE 17:51:24 80° WSW 17:55:56 10° NNW
Cosmos 1500 3.6 17:48:44 10° N 17:52:20 37° ENE 17:55:55 10° SE
SL-8 Rocket 4.0 17:49:10 10° NNW 17:55:23 86° W 18:01:33 10° S
Cosmos 1378 Rocket 3.8 17:55:55 10° SSW 18:00:13 68° WNW 18:04:33 10° N
Cosmos 1606 4.4 17:57:19 10° SW 18:00:54 33° WNW 18:04:28 10° N
CRYOSAT 2 4.3 17:56:16 10° N 18:01:13 81° E 18:06:08 10° S
Meteor 2-19 Rocket 4.5 17:55:12 10° NNW 18:01:19 85° W 18:07:23 10° S
Cosmos 1238 Rocket 2.9 17:59:44 10° SSE 18:02:03 33° ESE 18:02:03 33° ESE
CZ-2C R/B 2.9 17:57:29 10° S 18:02:30 68° WSW 18:07:40 10° NNW
MONITOR-E 4.1 17:59:31 10° SSE 18:02:42 72° ENE 18:05:56 10° N
SKYMED 2 4.4 18:04:28 28° E 18:04:55 29° E 18:08:43 10° SSE
Cosmos 1455 Rocket 3.0 18:00:56 10° NNW 18:05:21 87° ENE 18:09:47 10° SSE
Cosmos 2366 rocket 4.0 17:59:37 10° NNW 18:06:03 87° E 18:12:23 10° S
Cosmos 2263 Rocket 2.7 18:02:27 10° SW 18:08:01 58° NW 18:12:40 15° NNE
Resurs 01 Rocket 2.9 18:10:01 23° NE 18:10:01 23° NE 18:12:38 10° N
SMAP 3.7 18:04:30 10° S 18:09:06 59° WSW 18:13:44 10° NNW
Cosmos 2218 Rocket 4.1 18:02:59 10° NNW 18:09:22 82° W 18:15:36 10° S
Okean 1 3.9 18:07:10 10° SSE 18:10:52 35° E 18:11:02 34° E
ATLAS CENTAUR R/B 2.8 18:07:17 10° W 18:11:27 32° NNW 18:13:28 22° NNE
RESURS DK-1 4.4 18:13:06 10° NNW 18:15:18 15° NNE 18:15:18 15° NNE
COSMOS 2441 4.4 18:11:00 10° SSE 18:15:53 86° WSW 18:20:50 10° NNW
Cosmos 1934 Rocket 4.4 18:11:49 10° N 18:17:30 37° ENE 18:23:13 10° SE
Cosmos 2181 Rocket 4.2 18:12:26 10° SSW 18:18:49 78° WNW 18:25:20 10° N
Meteor 1-18 Rocket 4.3 18:14:21 10° S 18:19:54 58° E 18:25:29 11° NNE
Timation 2 Rocket 4.1 18:14:33 10° NW 18:21:20 83° NE 18:28:15 10° SE
Cosmos 1812 2.7 18:19:04 10° S 18:22:52 58° E 18:23:46 44° NE
Cosmos 1809 Rocket 4.3 18:18:02 10° N 18:24:15 74° ENE 18:30:23 10° SSE
GEOS 3 Rocket 4.3 18:21:11 10° SSE 18:26:11 55° SW 18:31:15 10° NW
Intercosmos 25 3.6 18:27:35 10° N 18:30:38 44° NNE 18:30:38 44° NNE
Cosmos 1844 Rocket 2.6 18:28:07 10° SSW 18:33:43 73° ESE 18:36:25 32° NE
COSMOS 2487 2.6 18:34:15 10° NNW 18:37:51 72° WSW 18:39:54 24° SSE
ALOS 3.5 18:39:58 27° NNE 18:39:58 27° NNE 18:42:30 10° N
CZ-3B DEB 3.4 18:35:41 10° SSW 18:40:27 43° SE 18:43:53 31° E
Cosmos 1821 Rocket 3.9 18:35:08 10° N 18:41:12 59° ENE 18:47:13 10° SSE
CZ-4 R/B 3.9 18:38:12 10° SSW 18:41:35 24° W 18:44:59 10° NW
Cosmos 407 Rocket 3.9 18:37:35 10° NNW 18:42:09 40° NE 18:42:09 40° NE
Cosmos 2344 4.3 18:34:28 10° W 18:42:41 58° N 18:48:35 28° ENE
SJ-6B 3.8 18:45:43 32° N 18:45:43 32° N 18:47:51 10° N
Cosmos 1975 3.5 18:42:11 10° NNW 18:46:12 55° W 18:50:10 10° S
Cosmos 1844 3.5 18:41:54 10° SSW 18:47:26 71° ESE 18:49:11 44° NE
Spot 2 Rocket 3.5 18:47:46 51° E 18:48:23 54° ENE 18:53:23 10° N
USA 234 3.3 18:48:21 39° E 18:50:54 69° SSE 18:57:26 10° WSW
Cosmos 1605 Rocket 4.2 18:45:13 10° N 18:51:20 45° ENE 18:51:48 44° E
Cosmos 372 Rocket 4.5 18:47:47 10° SW 18:52:59 58° NW 18:56:00 25° NNE
COSMO-SKYMED 1 2.4 18:53:03 73° E 18:53:13 74° ESE 18:57:33 10° S
NOSS 3-4 (A) 3.7 18:54:18 10° NW 19:01:09 89° SW 19:04:35 35° SE
NOSS 3-4 (C) 3.7 18:54:25 10° NW 19:01:16 89° SW 19:04:39 35° SE
BREEZE M DEB (TANK) 4.1 18:59:56 10° WSW 19:03:17 38° S 19:06:13 26° SE
Cosmos 2278 Rocket 2.1 18:58:58 10° SSW 19:04:32 63° ESE 19:04:54 61° E
Meteor 1-15 Rocket 4.3 18:59:10 10° N 19:05:04 60° ENE 19:05:29 58° E
ISS -1.0 19:03:23 10° SW 19:04:42 19° SSW 19:04:42 19° SSW
FengYun 1-2 T 4.1 19:06:30 43° SE 19:08:24 73° ENE 19:14:05 10° NNW
Thor Agena Rocket 4.5 19:05:02 12° N 19:09:35 47° WNW 19:14:35 10° SW
ERBS 3.9 19:06:53 10° WNW 19:09:00 35° WNW 19:09:00 35° WNW
Nadezhda 3 Rocket 3.8 19:05:09 10° S 19:11:21 78° E 19:17:40 10° NNE
NOSS 3-3 (A) 4.2 19:08:09 10° SSW 19:14:15 52° SE 19:14:23 52° ESE
NOSS 3-3 (C) 4.2 19:08:15 10° SSW 19:14:21 52° SE 19:14:27 52° SE
Cosmos 1743 4.3 19:12:27 10° NNW 19:14:31 29° NNW 19:14:31 29° NNW
FENGYUN 3A 3.6 19:17:58 67° NNE 19:17:58 67° NNE 19:22:51 10° NNW
Cosmos 1536 Rocket 4.3 19:16:55 10° SSW 19:21:17 52° WNW 19:22:37 38° NNW
Cosmos 2082 Rocket 2.9 19:16:59 10° NW 19:22:28 52° WSW 19:27:09 14° S
Meteor 1-13 Rocket 4.1 19:18:18 10° S 19:23:59 80° ESE 19:24:13 78° ENE
Cosmos 2297 Rocket 4.1 19:21:49 10° NW 19:25:33 18° N 19:25:41 18° N
Cosmos 1833 Rocket 3.3 19:20:39 10° NW 19:26:11 55° WSW 19:29:25 24° S
Cosmos 1190 Rocket 4.1 19:23:03 10° NNW 19:27:41 68° NNW 19:27:41 68° NNW
Cosmos 2227 Rocket 4.0 19:26:06 10° NNW 19:29:33 18° N 19:29:33 18° N
Resurs 01 Rocket 3.4 19:47:36 25° NNW 19:47:36 25° NNW 19:49:36 10° NNW
ATLAS CENTAUR R/B 3.7 19:47:49 10° NW 19:49:46 20° NNW 19:49:46 20° NNW
Cosmos 2263 Rocket 3.9 19:48:41 10° WNW 19:53:09 23° NNW 19:54:22 22° N
ALOS 4.5 20:18:29 20° NW 20:18:29 20° NW 20:20:06 10° NNW
Cosmos 1844 Rocket 4.0 20:13:00 10° WSW 20:18:05 35° NW 20:18:05 35° NW
USA 234 3.7 20:35:42 55° W 20:35:42 55° W 20:40:40 10° W
Cosmos 2278 Rocket 3.9 20:43:41 10° WSW 20:46:46 28° W 20:46:46 28° W
Cosmos 2344 4.3 20:49:52 10° WNW 20:58:36 64° N 20:58:36 64° N
CZ-3B DEB 3.8 21:07:41 10° W 21:12:39 61° WSW 21:12:39 61° WSW
